Station DBLN6 - Dunkirk, NY Image indicating link to RSS feed of recent meteorological observations for station DBLN6


Conditions at DBLN6 as of
(8:00 am EDT)
1200 GMT on 05/21/2024:
     

Click on the graph icon in the table below to see a time series plot of the last five days of that observation.

5-day plot - Wind Direction Wind Direction (WDIR):SSE ( 160 deg true )
5-day plot - Wind Speed Wind Speed (WSPD): 4 kts
5-day plot - Wind Gust Wind Gust (GST): 9 kts
5-day plot - Atmospheric Pressure Atmospheric Pressure (PRES):29.89 in
5-day plot - Pressure Tendency Pressure Tendency (PTDY):+0.01 in ( Rising )
5-day plot - Air Temperature Air Temperature (ATMP): 76.1 °F
5-day plot - Wind Speed at 10 Meters Wind Speed at 10 meters (WSPD10M): 4 kts
5-day plot - Wind Speed at 20 Meters Wind Speed at 20 meters (WSPD20M): 4 kts
5-day plot -  Wind Speed, Wind Gust and Atmospheric Pressure Combined plot of Wind Speed, Gust, and Air Pressure
Continuous Winds
TIME
(EDT)
5-day plot - Wind Direction WDIR 5-day plot - Wind Speed WSPD
8:00 amS ( 175 deg ) 4 kts
7:50 amS ( 174 deg ) 4 kts
7:40 amSSE ( 165 deg ) 5 kts
7:30 amSSE ( 165 deg ) 5 kts
7:20 amSSE ( 162 deg ) 7 kts
7:10 amSSE ( 168 deg ) 6 kts
 
Peak gust during the measurement hour
TIME
(EDT)
5-day plot - Gust Direction GDR 5-day plot - Gust Speed GST
7:16 amSSE ( 160 deg ) 12 kts
Previous observations
TIME
(EDT)
5-day plot - Wind Direction
WDIR
 
5-day plot - Wind Speed
WSPD
kts
5-day plot - Wind Gust
GST
kts
5-day plot - Wave Height
WVHT
ft
5-day plot - Dominant Wave Period
DPD
sec
5-day plot - Average Wave Period
APD
sec
5-day plot - Mean Wave Direction
MWD
 
5-day plot - Atmospheric Pressure
PRES
in
5-day plot - Pressure Tendency
PTDY
in
5-day plot - Air Temperature
ATMP
°F
5-day plot - Water Temperature
WTMP
°F
5-day plot - Dew Point
DEWP
°F
5-day plot - Salinity
SAL
psu
5-day plot - Visibility
VIS
nmi
5-day plot - Tide (above MLLW)
TIDE
ft
2024-05-21 07:00 am S 6 7----29.89+0.01 71.8-----
2024-05-21 06:00 amSSE 6 8----29.88+0.01 68.9-----
2024-05-21 05:00 amSSW 7 8----29.88+0.00 68.9-----
2024-05-21 04:00 am SW 8 9----29.88-0.02 69.6-----
2024-05-21 03:00 am S 5 9----29.87-0.03 74.5-----
2024-05-21 02:00 amSSE 5 6----29.88-0.03 71.8-----
2024-05-21 01:00 amSSE 7 8----29.89-0.01 72.1-----
2024-05-21 12:00 amSSE 6 7----29.90+0.00 72.1-----
2024-05-20 11:00 pm- 0 0----29.92+0.00 73.6-----
2024-05-20 10:00 pmNNE 3 4----29.91-0.01 70.0-----
2024-05-20 09:00 pm SE 4 5----29.90-0.02 75.6-----
2024-05-20 08:00 pm E 4 4----29.91-0.01 74.7-----
2024-05-20 07:00 pmNNW 2 2----29.91-0.03 75.2-----
2024-05-20 06:00 pm W 2 2----29.91-0.05 79.5-----
2024-05-20 05:00 pm N 4 4----29.93-0.04 76.3-----
2024-05-20 04:00 pm E 4 4----29.94-0.04 73.4-----
2024-05-20 03:00 pm E 5 5----29.96-0.03 68.5-----
2024-05-20 02:00 pm NE 6 6----29.96-0.03 68.5-----
2024-05-20 01:00 pm NE 5 5----29.98-0.02 66.4-----
2024-05-20 12:00 pmNNE 4 4----29.99-0.01 67.3-----
2024-05-20 11:00 am NW 3 3----29.99-0.01 70.7-----
2024-05-20 10:00 amWSW 3 3----30.00+0.01 71.8-----
2024-05-20 09:00 am SE 3 5----30.01+0.02 68.5-----
2024-05-20 08:00 am W 2 3----30.01+0.02 63.3-----